Content
SEND FEEDBACK

Daily
Averages
Monthly
Summary
France

BORDEAUX, FRANCE


Home > Europe > France
Elevation: 200 feet     Latitude: 44 50N     Longitude: 000 42W

WEATHER
 
SELECT A DAY
Number of Records: 330,826;   Date Range: 7/1/96 - 11/26/14
 
SHARE

PRINT THIS DATA

[ ← Previous Day ]
WEATHER ALMANAC - JULY 22, 2014
[ Next Day → ]
[ °C ]   °F
Weather ElementAverageHighLow
Temperature70.4 °F81 °F (6:00 pm)60 °F (6:00 am)
Dewpoint61.2 °F66.2 °F (12:30 pm)59 °F (12:00 am)
Humidity73.3 %100 % (6:30 am)37 % (5:00 pm)
Barometer30.12 in30.20 in (10:00 pm)30.04 in (12:00 am)
Wind Speed5.7 mph12.7 mph (3:30 pm)
Weather ElementAverage
Visibility5.9 mi
Wind DirectionSSW (193.6 °)

Weather ElementTotal
Precipitation---
Cooling Degree Days5.5 (Base 65)
Growing Degree Days20.5 (Base 50)
Averaged from 72 records on July 22, 2014
WEATHER CONDITIONS BREAKOUT
WIND DIRECTION BREAKOUT
WEATHER BY HOUR - JULY 22, 2014
[ °C ]   °F
Local TimeTemperatureDewpointHumidityBarometerVisibilityWind DirectionWind SpeedGust SpeedPrecipitationEventsConditions
12:00 AM64.0 °F60.0 °F84 %30.20 inWest (270°)4.6 mphScattered Clouds
12:00 AM64.4 °F60.8 °F88 %30.18 in6.2 miWest (270°)4.6 mphPartly Cloudy
12:30 AM62.6 °F60.8 °F94 %30.18 in6.2 miWest (270°)3.5 mph
1:00 AM63.0 °F60.0 °F89 %30.20 inWest (260°)3.5 mphScattered Clouds
1:00 AM62.6 °F60.8 °F94 %30.18 in6.2 miWest (260°)3.5 mphPartly Cloudy
1:30 AM62.6 °F60.8 °F94 %30.18 in6.2 miWest (270°)2.3 mphPartly Cloudy
2:00 AM62.0 °F60.0 °F93 %30.20 inWest (260°)3.5 mphFogPatches of Fog
2:00 AM62.6 °F60.8 °F94 %30.18 in6.2 miWest (260°)3.5 mph
2:30 AM60.8 °F59.0 °F94 %30.18 in6.2 miWest (260°)3.5 mph
3:00 AM60.8 °F59.0 °F94 %30.18 in6.2 miWSW (240°)4.6 mph
3:00 AM62.0 °F59.0 °F87 %30.19 inWSW (240°)4.6 mphFogPatches of Fog
3:30 AM60.8 °F59.0 °F94 %30.18 in6.2 miWSW (240°)5.8 mphFogPatches of Fog
4:00 AM61.0 °F59.0 °F92 %30.18 in1.0 miWSW (250°)3.5 mphFogPartial Fog
4:00 AM60.8 °F59.0 °F94 %30.15 in6.2 miWSW (250°)3.5 mphFogPatches of Fog
4:30 AM60.8 °F59.0 °F94 %30.15 in6.2 miWSW (250°)3.5 mph
5:00 AM61.0 °F60.0 °F93 %30.17 in1.0 miWest (270°)3.5 mphMist
5:00 AM60.8 °F59.0 °F94 %30.15 in6.2 miWest (270°)3.5 mph
5:30 AM60.8 °F59.0 °F94 %30.15 in6.2 miWSW (250°)3.5 mphFogPatches of Fog
6:00 AM60.8 °F59.0 °F94 %30.15 in6.2 miWSW (240°)4.6 mphFogPatches of Fog
6:00 AM60.0 °F59.0 °F95 %30.17 inWSW (240°)4.6 mphFogPatches of Fog
6:30 AM60.8 °F59.0 °F94 %30.15 in6.2 miWest (260°)3.5 mphFogPatches of Fog
7:00 AM60.0 °F59.0 °F96 %30.17 inWest (280°)2.3 mphFogPatches of Fog
7:00 AM60.8 °F59.0 °F94 %30.15 in3.7 miWest (280°)2.3 mphFogPatches of Fog
7:30 AM60.8 °F59.0 °F94 %30.15 in6.2 miVariable1.2 mphFogPatches of Fog
8:00 AM62.0 °F61.0 °F94 %30.17 inWNW (290°)2.3 mphFogPatches of Fog
8:00 AM62.6 °F60.8 °F94 %30.15 in6.2 miVariable2.3 mphPartly Cloudy
8:30 AM62.6 °F62.6 °F100 %30.15 in6.2 miVariable3.5 mph
9:00 AM64.4 °F62.6 °F94 %30.15 in6.2 miNNW (330°)4.6 mphPartly Cloudy
9:00 AM65.0 °F62.0 °F88 %30.17 inNNW (330°)4.6 mphScattered Clouds
9:30 AM68.0 °F62.6 °F83 %30.15 in6.2 miVariable3.5 mphPartly Cloudy
10:00 AM70.0 °F63.0 °F73 %30.17 inNNE (30°)3.5 mphScattered Clouds
10:00 AM69.8 °F62.6 °F78 %30.15 in6.2 miVariable3.5 mphPartly Cloudy
10:30 AM71.6 °F62.6 °F73 %30.15 in6.2 miVariable3.5 mph
11:00 AM74.0 °F63.0 °F59 %30.16 inNNE (30°)2.3 mphPartly Cloudy
11:00 AM73.4 °F62.6 °F69 %30.15 in6.2 miVariable2.3 mph
11:30 AM75.2 °F60.8 °F61 %30.15 in6.2 miNorth (350°)3.5 mphPartly Cloudy
12:00 PM75.2 °F62.6 °F65 %30.12 in6.2 miNorth (350°)5.8 mphMostly Cloudy
12:00 PM75.0 °F62.0 °F54 %30.14 inNorth (350°)5.8 mphPartly Cloudy
12:30 PM75.2 °F62.6 °F65 %30.12 in6.2 miNE (50°)4.6 mphScattered Clouds
1:00 PM77.0 °F61.0 °F48 %30.14 inNNW (340°)4.6 mphPartly Cloudy
1:00 PM77.0 °F60.8 °F57 %30.12 in6.2 miNNW (340°)4.6 mphMostly Cloudy
1:30 PM77.0 °F59.0 °F54 %30.12 in6.2 miNorth (360°)8.1 mphScattered Clouds
2:00 PM78.0 °F60.0 °F44 %30.12 inNorth (10°)9.2 mphPartly Cloudy
2:00 PM77.0 °F60.8 °F57 %30.12 in6.2 miNorth (10°)9.2 mphScattered Clouds
2:30 PM78.8 °F60.8 °F54 %30.09 in6.2 miNNE (20°)6.9 mphMostly Cloudy
3:00 PM80.6 °F60.8 °F51 %30.09 in6.2 miNorth (10°)9.2 mphMostly Cloudy
3:00 PM80.0 °F61.0 °F41 %30.10 inNorth (10°)9.2 mphPartly Cloudy
3:30 PM78.8 °F59.0 °F51 %30.09 in6.2 miNorth (360°)8.1 mphMostly Cloudy
4:00 PM80.0 °F61.0 °F42 %30.09 inNorth (10°)5.8 mphPartly Cloudy
4:00 PM80.6 °F60.8 °F51 %30.09 in6.2 miNorth (10°)5.8 mphMostly Cloudy
4:30 PM80.6 °F60.8 °F51 %30.06 in6.2 miNNE (30°)6.9 mphPartly Cloudy
5:00 PM81.0 °F59.0 °F37 %30.08 inNorth (10°)5.8 mphPartly Cloudy
5:00 PM80.6 °F59.0 °F48 %30.06 in6.2 miNorth (10°)5.8 mphPartly Cloudy
5:30 PM80.6 °F60.8 °F51 %30.06 in6.2 miNNE (30°)6.9 mphScattered Clouds
6:00 PM80.6 °F60.8 °F51 %30.06 in6.2 miNNE (30°)8.1 mphScattered Clouds
6:00 PM81.0 °F60.0 °F38 %30.07 inNNE (30°)8.1 mphScattered Clouds
6:30 PM80.6 °F60.8 °F51 %30.06 in6.2 miNorth (10°)5.8 mphMostly Cloudy
7:00 PM81.0 °F63.0 °F44 %30.06 inNorth (10°)10.4 mphScattered Clouds
7:00 PM80.6 °F62.6 °F54 %30.04 in6.2 miNorth (10°)10.4 mph
7:30 PM80.6 °F64.4 °F58 %30.04 in6.2 miNNW (330°)10.4 mphScattered Clouds
8:00 PM77.0 °F65.0 °F59 %30.06 inNNW (330°)12.7 mphPartly Cloudy
8:00 PM77.0 °F66.2 °F69 %30.06 in6.2 miNNW (330°)12.7 mphPartly Cloudy
8:30 PM77.0 °F64.4 °F65 %30.06 in6.2 miNNW (330°)11.5 mph
9:00 PM75.2 °F64.4 °F69 %30.06 in6.2 miNW (320°)10.4 mph
9:00 PM75.0 °F64.0 °F61 %30.07 inNW (320°)10.4 mphScattered Clouds
9:30 PM73.4 °F64.4 °F73 %30.06 in6.2 miNW (320°)8.1 mph
10:00 PM71.0 °F64.0 °F73 %30.08 inNW (320°)6.9 mphScattered Clouds
10:00 PM71.6 °F64.4 °F78 %30.06 in6.2 miNW (320°)6.9 mph
10:30 PM69.8 °F64.4 °F83 %30.06 in6.2 miNNW (330°)6.9 mph
11:00 PM69.0 °F63.0 °F76 %30.08 inNNW (330°)6.9 mphPartly Cloudy
11:00 PM69.8 °F62.6 °F78 %30.06 in6.2 miNNW (330°)6.9 mph
11:30 PM68.0 °F62.6 °F83 %30.06 in6.2 miNNW (330°)6.9 mph
Hourly data recorded from LFBD, located miles away from Bordeaux, France







STORIES FROM OUR PARTNERS